www.pogodaiklimat.ru

Погода и климат >> Архив погоды >> Греция >> Ираклион


ПОГОДА в Ираклионе

  • Прогноз погоды в Ираклионе
  • Монитор погоды в Ираклионе

АРХИВ ПОГОДЫ в Ираклионе

Время (UTC), дата Ветер
(напр.,м/с)
 
Видим.   Явления Облачность Т
(С)
Тd
(С)
f
(%)
Тe
(С)
Тes
(С)
Комфортность P
(гПа)
Po
(гПа)
Тmin
(С)
Tmax
(С)
R
(мм)
R24
(мм)
S
(см)
15 14.07 СЗ 5
{12}
10 км 1/1 600 м
[Cu med, cong]
+29.2 +21.9 65 +38 +40 очень
душно
1005.1 1000.7
18 14.07 СЗ 7
{10}
10 км 4/4 600 м
[Cu med, cong]
+27.4 +21.5 70 +35 +35 очень
душно
1004.9 1000.5 +30.0
21 14.07 СЗ 5
{10}
10 км 3/3 600 м
[Cu med, cong]
+26.4 +18.6 62 +31 +31 душно 1006.3 1001.8
00 15.07 СЗ 4
{6}
10 км 3/3 600 м
[Cu med, cong]
+25.6 +20.5 73 +32 +32 очень
душно
1005.8 1001.3
03 15.07 СЗ 4
{5}
10 км 5/4 600 м
[Cu hum Ac lent]
+25.6 +21.1 76 +32 +32 очень
душно
1006.3 1001.8
06 15.07 В 3
{7}
10 км 6/6 480 м
[Cu Sc]
+26.2 +21.8 77 +34 +36 очень
душно
1006.9 1002.3 +25.4 290
09 15.07 С 4
{6}
10 км 5/5 540 м
[Cu Sc]
+27.2 +18.2 58 +32 +39 очень
душно
1009.3 1004.7
12 15.07 СВ 4
{7}
10 км 4/4 600 м
[Cu med, cong]
+27.2 +19.2 62 +33 +41 очень
душно
1008.7 1004.2
15 15.07 СВ 3
{5}
10 км 1/1 600 м
[Cu med, cong]
+26.0 +18.9 65 +31 +35 очень
душно
1007.6 1003.1
18 15.07 В 2
{6}
10 км 1/1 600 м
[Cu med, cong]
+24.4 +19.8 76 +30 +30 очень
душно
1008.2 1003.6 +27.8 27
21 15.07 Ю 2
{4}
10 км 1/1 600 м
[Cu hum]
+24.4 +19.8 76 +30 +30 очень
душно
1007.8 1003.3
00 16.07 В 4
{5}
10 км 1/1 600 м
[Cu hum]
+24.0 +20.0 78 +29 +29 душно 1006.7 1002.2
03 16.07 Ю 2
{8}
10 км 8/4 540 м
[Cu Sc Ac und]
+23.6 +20.2 81 +29 +29 душно 1006.0 1001.5
06 16.07 нст 2
{5}
10 км 3/3 600 м
[Cu med, cong Ac und]
+26.6 +20.6 70 +33 +38 очень
душно
1005.4 1001.0 +23.4 285
09 16.07 СВ 6
{9}
10 км 4/3 600 м
[Cu med, cong Ac und]
+28.4 +19.2 57 +34 +39 очень
душно
1004.7 1000.3
12 16.07 В 7
{11}
10 км 3/3 600 м
[Cu med, cong]
+28.4 +19.2 57 +34 +37 очень
душно
1003.1 998.7 26
15 16.07 СВ 4
{8}
10 км 3/3 600 м
[Cu med, cong]
+27.2 +18.5 59 +32 +35 очень
душно
1002.6 998.2
18 16.07 С 3
{8}
10 км 4/4 600 м
[Cu med, cong]
+25.0 +20.5 76 +31 +31 очень
душно
1003.0 998.5 +28.4
21 16.07 СЗ 3
{7}
10 км 5/4 600 м
[Cu med, cong Ac lent]
+25.0 +21.4 80 +32 +32 очень
душно
1004.0 999.5
00 17.07 СЗ 3
{4}
10 км 6/5 600 м
[Cu med, cong Ac und]
+24.4 +20.8 80 +30 +30 очень
душно
1003.1 998.6
03 17.07 СЗ 7
{11}
8000 м гроза, ливневой дождь 9/6 400 м
[Cb cap Ac und]
+22.0 +19.2 84 +27 +27 душно 1002.5 997.9
06 17.07 Ю 3
{8}
10 км гроза без осадков 8/6 600 м
[Cb cap Ac As]
+21.2 +18.7 86 +26 +27 душно 1003.1 998.6 +20.4 5 270
09 17.07 З 7
{9}
10 км {гроза} 6/3 600 м
[Cu med, cong Ac und]
+25.8 +19.3 67 +31 +34 очень
душно
1003.6 999.3
12 17.07 СЗ 7
{13}
10 км 6/3 600 м
[Cu med, cong Ac und]
+26.0 +19.9 69 +32 +34 очень
душно
1004.7 1000.2
15 17.07 СЗ 8
{11}
10 км 6/5 600 м
[Cu Sc Ac und]
+26.4 +19.7 67 +32 +33 очень
душно
1005.3 1000.9
18 17.07 СЗ 6
{10}
10 км 6/6 600 м
[Cu Sc]
+24.6 +20.0 76 +30 +30 очень
душно
1006.9 1002.3 +26.6 26
21 17.07 СЗ 8
{11}
10 км 6/6 540 м
[Cu Sc]
+24.0 +19.4 75 +29 +29 душно 1007.8 1003.3
00 18.07 СЗ 7
{11}
10 км 3/3 600 м
[Cu med, cong]
+24.2 +18.6 71 +29 +29 душно 1008.0 1003.5
03 18.07 СЗ 7
{11}
10 км 3/3 600 м
[Cu med, cong]
+24.0 +18.7 72 +29 +29 душно 1008.3 1003.8
06 18.07 СЗ 6
{9}
10 км 5/5 600 м
[Cu Sc]
+25.6 +17.7 62 +30 +31 душно 1009.1 1004.6 +24.0 280
09 18.07 СЗ 7
{10}
10 км 4/4 600 м
[Cu med, cong]
+27.0 +17.2 55 +31 +34 душно 1010.2 1005.6
12 18.07 СЗ 8
{11}
10 км 3/3 600 м
[Cu med, cong]
+28.0 +16.9 51 +32 +34 душно 1010.0 1005.6
15 18.07 СЗ 6
{12}
10 км 3/3 600 м
[Cu med, cong]
+27.4 +15.4 48 +30 +31 жарко 1010.2 1005.6
18 18.07 СЗ 4
{9}
10 км 3/3 600 м
[Cu med, cong]
+25.6 +14.7 51 +28 +28 жарко 1011.3 1006.7 +28.0 26
21 18.07 СЗ 4
{7}
10 км ясно +25.0 +14.7 53 +28 +28 жарко 1011.9 1007.4
00 19.07 ЮЗ 2
{5}
10 км ясно +23.0 +14.6 59 +27 +27 душно 1011.8 1007.3
03 19.07 Ю 2
{5}
10 км 3/0
[Ci fib]
+20.0 +13.8 67 +23 +23 комфорт 1012.0 1007.5
06 19.07 СЗ 6
{8}
10 км 1/1 600 м
[Cu hum Ci fib]
+26.2 +16.2 54 +30 +32 душно 1012.3 1007.8 +20.0 285
09 19.07 СЗ 7
{10}
10 км 1/1 600 м
[Cu hum]
+28.0 +14.9 45 +31 +35 душно 1012.9 1008.3
12 19.07 СЗ 7
{10}
10 км 1/1 600 м
[Cu hum]
+28.2 +16.4 49 +32 +36 душно 1013.0 1008.5 26
15 19.07 СЗ 8
{10}
10 км 3/1 600 м
[Cu hum Ac cast]
+27.6 +19.3 61 +33 +34 очень
душно
1012.6 1008.0
18 19.07 З 6
{9}
10 км 1/1 600 м
[Cu hum]
+25.6 +16.6 58 +29 +29 душно 1013.0 1008.5 +28.6 26
21 19.07 З 6
{8}
10 км 1/1 600 м
[Cu hum]
+25.2 +17.6 63 +29 +29 душно 1013.4 1008.9
00 20.07 З 5
{8}
10 км 1/1 600 м
[Cu hum]
+24.8 +17.9 65 +29 +29 душно 1013.3 1008.7
03 20.07 ЮЗ 1
{8}
10 км 1/1 300 м
[Cu hum]
+23.6 +16.8 66 +27 +27 жарко 1013.0 1008.5
06 20.07 З 7
{10}
10 км 3/3 600 м
[Cu hum]
+26.4 +17.9 60 +31 +32 душно 1013.5 1009.0 +23.6 25 280
09 20.07 З 9
{11}
10 км 3/3 600 м
[Cu hum]
+27.8 +18.9 58 +33 +35 очень
душно
1014.3 1009.8
12 20.07 СЗ 9
{12}
10 км 3/3 600 м
[Cu hum]
+28.2 +18.3 55 +33 +34 очень
душно
1014.9 1010.3
15 20.07 СЗ 8
{11}
10 км 3/3 600 м
[Cu hum]
+27.8 +18.9 58 +33 +33 очень
душно
1014.3 1009.8
18 20.07 СЗ 7
{15}
10 км 3/3 600 м
[Cu hum]
+25.4 +19.9 72 +31 +31 очень
душно
1014.6 1010.0 +28.4 26
21 20.07 З 5
{10}
10 км 3/3 600 м
[Cu hum]
+24.8 +18.9 70 +30 +30 душно 1015.4 1010.9
00 21.07 З 7
{9}
10 км 3/3 600 м
[Cu hum]
+24.4 +18.8 71 +29 +29 душно 1014.5 1009.9
03 21.07 З 7
{10}
10 км 1/1 600 м
[Cu hum]
+24.2 +18.2 69 +29 +29 душно 1013.6 1009.1
06 21.07 З 21
{11}
5000 м 1/1 1000 м
[]
+25.0 +19.5 72 +30 +30 душно 1017.4 1017.0 +21.8 26
09 21.07 СЗ 9
{13}
10 км 3/3 600 м
[Cu hum]
+27.8 +19.9 62 +34 +35 очень
душно
1014.2 1009.6
12 21.07 СЗ 7
{12}
10 км 3/3 600 м
[Cu hum]
+28.0 +20.5 64 +35 +38 очень
душно
1014.2 1009.6

 

Местоположение метеостанции Ираклион (Греция): широта 35.33 долгота 25.18 высота над уровнем моря 39 м.

В архиве по умолчанию представлена погода в Ираклионе за последнюю неделю. Архивные данные за месяц целиком и за предыдущие месяцы, начиная с января 2011 года, Вы можете получить, выбрав интересующий диапазон дат из раскрывающегося списка и нажав кнопку "Ввод!".


*Определитесь, кто Вы:
робот инопланетянин человек

Внимание! Время в таблицах - всемирное. Для получения местного времени необходимо прибавить поправку, которая равна 2 ч.

Смотрите также архив погоды в соседних городах и на ближайших метеорологических станциях:

Погода в Кастели (Греция) (21 км)
Погода в Ситии (Греция) (85 км)
Погода на Суде (Греция) (98 км)
Погода в Касосе (Греция) (157 км)
Погода на Милосе (Греция) (168 км)
Погода в Астипалее (Греция) (176 км)
Погода в Паросе (Греция) (188 км)
Погода в Карпатосе (Греция) (189 км)
Погода на Наксосе (Греция) (198 км)
Погода на Китире (Греция) (222 км)

Пояснения к столбцам:

Ветер - указаны скорость ветра в м/с - средняя за 10 мин, порывы в срок и между сроками (в фигурных скобках) и направление, откуда дует ветер: С - северный, СВ - северо-восточный, В - восточный, ЮВ - юго-восточный, Ю - южный, ЮЗ - юго-западный, З - западный, СЗ - северо-западный.
Видимость - горизонтальная дальность видимости в метрах или километрах. При видимости от 1 до 10 км при отсутствии осадков обычно наблюдается дымка, при ухудшении видимости до 1 км и менее - туман. В сухую погоду видимость может ухудшаться дымом, пылью или мглою.
Явления - указаны атмосферные явления, наблюдавшиеся в срок или в последний час перед сроком; фигурными скобками обозначены явления, наблюдавшиеся между сроками (за 1-3 часа до срока); квадратными скобками обозначены град или гололедные отложения с указанием их диаметра в мм.
Облачность - указаны через наклонную черту общая и нижняя облачность в баллах и высота нижней границы облаков в метрах; квадратными скобками обозначены формы облаков: Ci - перистые, Cs - перисто-слоистые, Cc - перисто-кучевые, Ac - высококучевые, As - высокослоистые, Sc - слоисто-кучевые, Ns - слоисто-дождевые, Cu - кучевые, Cb - кучево-дождевые. Подробнее классификацию облаков см. в Атласе облаков (PDF).
T - Температура воздуха - температура, измеренная на высоте 2 м над землей.
Td - Температура точки росы - температура, при понижении до которой содержащийся в воздухе водяной пар достигнет насыщения.
f - Относительная влажность воздуха - влажноcть воздуха, измеренная на высоте 2 м над землей.
Te - Эффективная температура - температура, которую ощущает одетый по сезону человек в тени. Характеристика душности погоды. При расчете учитывается влияние влажности воздуха и скорости ветра на теплоощущения человека.
Tes - Эффективная температура на солнце - температура, которую ощущает человек, с поправкой на солнечный нагрев. Характеристика знойности погоды. Зависит от высоты солнца над горизонтом, облачности и скорости ветра. Ночью, в пасмурную погоду, а также при ветре 12 м/с и более поправка равна нулю.
P - Атмосферное давление - приведенное к уровню моря атмосферное давление.
Po - Атмосферное давление - измеренное на уровне метеостанции атмосферное давление.
Tmin - Минимальная температура - минимум температуры воздуха на высоте 2 м над землей.
Tmax - Максимальная температура - максимум температуры воздуха на высоте 2 м над землей.
R - Количество осадков - Количество выпавших осадков за период времени, мм. При наведении курсора мыши на число - период времени, за который выпало указанное количество осадков.
R24 - Количество осадков - Количество выпавших осадков за 24 часа, мм.
S - Снежный покров - Высота снежного покрова, см. При наведении курсора мыши на число - состояние снежного покрова и степень покрытия местности в баллах.